Hourly Weather Godzikowice

Today, 15 May, Saturday

Time Temperature Precipitation Wind Pressure Humidity
00:00 +8°C° 0 mm 2 mps 744 mmHg 91%
01:00 +8°C° 0 mm 2 mps 744 mmHg 92%
02:00 +8°C° 0 mm 2 mps 744 mmHg 92%
03:00 +8°C° 0 mm 1 mps 744 mmHg 92%
04:00 +8°C° 0 mm 1 mps 744 mmHg 91%
05:00 +10°C° 0 mm 1 mps 744 mmHg 87%
06:00 +11°C° 0 mm 1 mps 744 mmHg 83%
07:00 +13°C° 0 mm 1 mps 744 mmHg 79%
08:00 +15°C° 0.1 mm 2 mps 744 mmHg 73%
09:00 +16°C° 0.1 mm 2 mps 744 mmHg 67%
10:00 +18°C° 0.1 mm 2 mps 744 mmHg 61%
11:00 +18°C° 0.2 mm 2 mps 744 mmHg 59%
12:00 +19°C° 0.2 mm 2 mps 743 mmHg 57%
13:00 +19°C° 0.2 mm 2 mps 743 mmHg 56%
14:00 +18°C° 0.4 mm 3 mps 743 mmHg 62%
15:00 +17°C° 0.4 mm 3 mps 743 mmHg 69%
16:00 +17°C° 0.4 mm 3 mps 743 mmHg 75%
17:00 +15°C° 0.5 mm 2 mps 742 mmHg 80%
18:00 +14°C° 0.5 mm 2 mps 742 mmHg 84%
19:00 +13°C° 0.5 mm 1 mps 742 mmHg 88%
20:00 +13°C° 0.3 mm 1 mps 742 mmHg 90%
21:00 +13°C° 0.3 mm 1 mps 742 mmHg 92%
22:00 +12°C° 0.3 mm 2 mps 742 mmHg 93%
23:00 +12°C° 0.5 mm 2 mps 742 mmHg 94%

Tomorrow, 16 May, Sunday

Time Temperature Precipitation Wind Pressure Humidity
00:00 +10°C° 0.5 mm 2 mps 742 mmHg 95%
01:00 +10°C° 0.5 mm 2 mps 741 mmHg 96%
02:00 +10°C° 0.2 mm 2 mps 741 mmHg 95%
03:00 +9°C° 0.2 mm 2 mps 741 mmHg 95%
04:00 +9°C° 0.2 mm 2 mps 741 mmHg 95%
05:00 +10°C° 0 mm 2 mps 742 mmHg 93%
06:00 +10°C° 0 mm 3 mps 742 mmHg 90%
07:00 +11°C° 0 mm 3 mps 742 mmHg 87%
08:00 +12°C° 0 mm 3 mps 742 mmHg 84%
09:00 +13°C° 0 mm 2 mps 742 mmHg 80%
10:00 +14°C° 0 mm 2 mps 742 mmHg 76%
11:00 +15°C° 0.1 mm 2 mps 742 mmHg 72%
12:00 +16°C° 0.1 mm 2 mps 742 mmHg 68%
13:00 +17°C° 0.1 mm 2 mps 742 mmHg 64%
14:00 +17°C° 0.2 mm 2 mps 741 mmHg 64%
15:00 +17°C° 0.2 mm 3 mps 741 mmHg 65%
16:00 +17°C° 0.2 mm 3 mps 741 mmHg 66%
17:00 +16°C° 0.4 mm 2 mps 741 mmHg 71%
18:00 +15°C° 0.4 mm 2 mps 741 mmHg 77%
19:00 +13°C° 0.4 mm 2 mps 741 mmHg 83%
20:00 +12°C° 0 mm 2 mps 741 mmHg 85%
21:00 +10°C° 0 mm 2 mps 741 mmHg 86%
22:00 +9°C° 0 mm 2 mps 741 mmHg 88%
23:00 +9°C° 0 mm 2 mps 741 mmHg 89%

Day after tomorrow, 17 May, Monday

Time Temperature Precipitation Wind Pressure Humidity
00:00 +9°C° 0 mm 2 mps 741 mmHg 90%
01:00 +9°C° 0 mm 3 mps 741 mmHg 91%
02:00 +9°C° 1 mm 2 mps 741 mmHg 92%
03:00 +10°C° 1 mm 2 mps 741 mmHg 93%
04:00 +10°C° 1 mm 2 mps 741 mmHg 94%
05:00 +10°C° 0.1 mm 3 mps 741 mmHg 92%
06:00 +11°C° 0.1 mm 3 mps 741 mmHg 90%
07:00 +11°C° 0.1 mm 3 mps 741 mmHg 89%
08:00 +12°C° 0.3 mm 3 mps 741 mmHg 85%
09:00 +13°C° 0.3 mm 4 mps 741 mmHg 81%
10:00 +14°C° 0.3 mm 4 mps 741 mmHg 77%
11:00 +14°C° 0.3 mm 4 mps 741 mmHg 74%
12:00 +15°C° 0.3 mm 4 mps 741 mmHg 72%
13:00 +15°C° 0.3 mm 4 mps 741 mmHg 70%
14:00 +15°C° 0.7 mm 4 mps 741 mmHg 71%
15:00 +15°C° 0.7 mm 4 mps 741 mmHg 73%
16:00 +15°C° 0.7 mm 5 mps 741 mmHg 75%
17:00 +13°C° 0.7 mm 4 mps 741 mmHg 79%
18:00 +12°C° 0.7 mm 4 mps 742 mmHg 83%
19:00 +11°C° 0.7 mm 3 mps 742 mmHg 88%
20:00 +10°C° 0 mm 3 mps 742 mmHg 89%
21:00 +9°C° 0 mm 3 mps 742 mmHg 91%
22:00 +9°C° 0 mm 3 mps 743 mmHg 92%
23:00 +8°C° 0 mm 3 mps 743 mmHg 92%

18 May, Tuesday

Time Temperature Precipitation Wind Pressure Humidity
00:00 +8°C° 0 mm 3 mps 743 mmHg 92%
01:00 +7°C° 0 mm 3 mps 743 mmHg 92%
02:00 +7°C° 0 mm 3 mps 743 mmHg 92%
03:00 +7°C° 0 mm 3 mps 743 mmHg 92%
04:00 +5°C° 0 mm 3 mps 743 mmHg 92%
05:00 +7°C° 0 mm 4 mps 743 mmHg 89%
06:00 +8°C° 0 mm 4 mps 743 mmHg 86%
07:00 +10°C° 0 mm 5 mps 743 mmHg 83%
08:00 +10°C° 0.1 mm 5 mps 744 mmHg 81%
09:00 +12°C° 0.1 mm 5 mps 744 mmHg 79%
10:00 +12°C° 0.1 mm 5 mps 744 mmHg 77%
11:00 +13°C° 0.3 mm 5 mps 744 mmHg 75%
12:00 +14°C° 0.3 mm 6 mps 744 mmHg 73%
13:00 +14°C° 0.3 mm 6 mps 744 mmHg 71%
14:00 +14°C° 0.3 mm 6 mps 744 mmHg 73%
15:00 +14°C° 0.3 mm 5 mps 744 mmHg 75%
16:00 +14°C° 0.3 mm 5 mps 745 mmHg 76%
17:00 +13°C° 0.3 mm 5 mps 745 mmHg 80%
18:00 +12°C° 0.3 mm 4 mps 745 mmHg 83%
19:00 +11°C° 0.3 mm 3 mps 745 mmHg 87%
20:00 +10°C° 0.1 mm 3 mps 746 mmHg 89%
21:00 +9°C° 0.1 mm 3 mps 746 mmHg 91%
22:00 +8°C° 0.1 mm 3 mps 746 mmHg 93%
23:00 +8°C° 0 mm 3 mps 747 mmHg 93%

19 May, Wednesday

Time Temperature Precipitation Wind Pressure Humidity
00:00 +6°C° 0 mm 4 mps 747 mmHg 93%
01:00 +6°C° 0 mm 4 mps 747 mmHg 94%
02:00 +6°C° 0 mm 4 mps 747 mmHg 94%
03:00 +7°C° 0 mm 3 mps 747 mmHg 95%
04:00 +7°C° 0 mm 3 mps 747 mmHg 95%
05:00 +7°C° 0.2 mm 4 mps 748 mmHg 94%
06:00 +7°C° 0.2 mm 4 mps 748 mmHg 93%
07:00 +8°C° 0.2 mm 4 mps 748 mmHg 92%
08:00 +8°C° 0.3 mm 4 mps 749 mmHg 90%
09:00 +9°C° 0.3 mm 5 mps 749 mmHg 89%
10:00 +9°C° 0.3 mm 5 mps 749 mmHg 87%
11:00 +11°C° 0.1 mm 4 mps 749 mmHg 77%
12:00 +13°C° 0.1 mm 4 mps 749 mmHg 67%
13:00 +14°C° 0.1 mm 4 mps 749 mmHg 57%
14:00 +14°C° 0 mm 4 mps 748 mmHg 58%
15:00 +14°C° 0 mm 4 mps 748 mmHg 59%
16:00 +14°C° 0 mm 3 mps 748 mmHg 59%
17:00 +13°C° 0.2 mm 3 mps 748 mmHg 67%
18:00 +12°C° 0.2 mm 3 mps 749 mmHg 74%
19:00 +10°C° 0.2 mm 2 mps 749 mmHg 81%
20:00 +9°C° 0 mm 2 mps 749 mmHg 84%
21:00 +8°C° 0 mm 2 mps 749 mmHg 86%
22:00 +7°C° 0 mm 3 mps 749 mmHg 89%
23:00 +7°C° 0 mm 3 mps 749 mmHg 90%

20 May, Thursday

Time Temperature Precipitation Wind Pressure Humidity
00:00 +7°C° 0 mm 3 mps 750 mmHg 91%
01:00 +7°C° 0 mm 3 mps 750 mmHg 92%
02:00 +5°C° 0 mm 3 mps 750 mmHg 92%
03:00 +5°C° 0 mm 3 mps 750 mmHg 93%
04:00 +5°C° 0 mm 3 mps 750 mmHg 93%
05:00 +6°C° 0 mm 4 mps 750 mmHg 89%
06:00 +8°C° 0 mm 4 mps 751 mmHg 85%
07:00 +9°C° 0 mm 5 mps 751 mmHg 81%
08:00 +10°C° 0.2 mm 5 mps 751 mmHg 77%
09:00 +12°C° 0.2 mm 5 mps 750 mmHg 73%
10:00 +13°C° 0.2 mm 5 mps 750 mmHg 68%
11:00 +13°C° 0.2 mm 5 mps 750 mmHg 66%
12:00 +14°C° 0.2 mm 5 mps 750 mmHg 64%
13:00 +14°C° 0.2 mm 5 mps 749 mmHg 62%
14:00 +15°C° 0.2 mm 5 mps 749 mmHg 62%
15:00 +15°C° 0.2 mm 5 mps 749 mmHg 61%
16:00 +15°C° 0.2 mm 4 mps 748 mmHg 61%
17:00 +14°C° 0.1 mm 4 mps 748 mmHg 66%
18:00 +13°C° 0.1 mm 4 mps 748 mmHg 72%
19:00 +12°C° 0.1 mm 3 mps 747 mmHg 77%
20:00 +11°C° 0 mm 3 mps 747 mmHg 77%
21:00 +11°C° 0 mm 3 mps 747 mmHg 76%
22:00 +10°C° 0 mm 3 mps 747 mmHg 76%
23:00 +10°C° 0 mm 3 mps 746 mmHg 76%
Show more